When you browse on this site, cookies collect data to enhance your experience and personalize the content and advertising you see.
Visit our Privacy Policy to learn more. By continuing to use the site, you agree to this use of cookies and data.
  • în România
  • Lista ţărilor
  • Pe 7 zile
  • Temperatura apei
  • Meteo pe hartă
  • Widget-uri
  • user-avatar
    Intrare

    Meteo pe oră la Gwatemala

    Astăzi, 21 August, Miercuri

    Timp Temperatura Precipitaţii Vânt Presiune Umiditate
    00:00 +18°C° 0.4 mm 1 m/s 637 mmHg 94%
    01:00 +16°C° 0 mm 1 m/s 637 mmHg 94%
    02:00 +16°C° 0 mm 1 m/s 636 mmHg 94%
    03:00 +16°C° 0 mm 1 m/s 636 mmHg 94%
    04:00 +16°C° 0 mm 1 m/s 636 mmHg 94%
    05:00 +16°C° 0 mm 1 m/s 636 mmHg 93%
    06:00 +16°C° 0 mm 1 m/s 636 mmHg 93%
    07:00 +19°C° 0 mm 1 m/s 637 mmHg 88%
    08:00 +21°C° 0 mm 1 m/s 638 mmHg 83%
    09:00 +23°C° 0 mm 1 m/s 639 mmHg 77%
    10:00 +24°C° 0.6 mm 1 m/s 639 mmHg 78%
    11:00 +24°C° 0.6 mm 1 m/s 639 mmHg 79%
    12:00 +25°C° 0.6 mm 1 m/s 639 mmHg 80%
    13:00 +25°C° 1.3 mm 1 m/s 638 mmHg 83%
    14:00 +24°C° 1.3 mm 1 m/s 638 mmHg 86%
    15:00 +23°C° 1.3 mm 1 m/s 637 mmHg 89%
    16:00 +21°C° 0.8 mm 0 m/s 637 mmHg 91%
    17:00 +20°C° 0.8 mm 0 m/s 637 mmHg 94%
    18:00 +19°C° 0.8 mm 0 m/s 637 mmHg 96%
    19:00 +18°C° 0.7 mm 0 m/s 637 mmHg 96%
    20:00 +18°C° 0.7 mm 0 m/s 637 mmHg 96%
    21:00 +19°C° 0.7 mm 1 m/s 638 mmHg 96%
    22:00 +19°C° 0.4 mm 1 m/s 638 mmHg 95%
    23:00 +18°C° 0.4 mm 1 m/s 637 mmHg 95%

    Mâine, 22 August, Joi

    Timp Temperatura Precipitaţii Vânt Presiune Umiditate
    00:00 +18°C° 0.4 mm 1 m/s 637 mmHg 95%
    01:00 +18°C° 0.1 mm 1 m/s 637 mmHg 95%
    02:00 +18°C° 0.1 mm 1 m/s 637 mmHg 95%
    03:00 +16°C° 0.1 mm 1 m/s 636 mmHg 95%
    04:00 +16°C° 0.1 mm 1 m/s 636 mmHg 95%
    05:00 +18°C° 0.1 mm 1 m/s 637 mmHg 95%
    06:00 +18°C° 0.1 mm 1 m/s 637 mmHg 94%
    07:00 +20°C° 0 mm 1 m/s 638 mmHg 90%
    08:00 +21°C° 0 mm 1 m/s 638 mmHg 85%
    09:00 +23°C° 0 mm 1 m/s 639 mmHg 80%
    10:00 +24°C° 0.1 mm 1 m/s 639 mmHg 76%
    11:00 +25°C° 0.1 mm 1 m/s 639 mmHg 73%
    12:00 +26°C° 0.1 mm 1 m/s 639 mmHg 69%
    13:00 +26°C° 0.5 mm 1 m/s 639 mmHg 72%
    14:00 +25°C° 0.5 mm 1 m/s 638 mmHg 74%
    15:00 +25°C° 0.5 mm 1 m/s 638 mmHg 77%
    16:00 +24°C° 0.3 mm 1 m/s 637 mmHg 83%
    17:00 +21°C° 0.3 mm 0 m/s 637 mmHg 89%
    18:00 +19°C° 0.3 mm 0 m/s 637 mmHg 94%
    19:00 +18°C° 0.1 mm 0 m/s 637 mmHg 95%
    20:00 +19°C° 0.1 mm 1 m/s 637 mmHg 95%
    21:00 +19°C° 0.1 mm 1 m/s 637 mmHg 95%
    22:00 +18°C° 0 mm 1 m/s 637 mmHg 95%
    23:00 +18°C° 0 mm 1 m/s 637 mmHg 95%

    Poimâine, 23 August, Vineri

    Timp Temperatura Precipitaţii Vânt Presiune Umiditate
    00:00 +18°C° 0 mm 1 m/s 637 mmHg 95%
    01:00 +18°C° 0 mm 1 m/s 637 mmHg 95%
    02:00 +16°C° 0 mm 1 m/s 636 mmHg 95%
    03:00 +16°C° 0 mm 1 m/s 636 mmHg 95%
    04:00 +16°C° 0 mm 1 m/s 636 mmHg 96%
    05:00 +16°C° 0 mm 1 m/s 636 mmHg 96%
    06:00 +16°C° 0 mm 1 m/s 636 mmHg 96%
    07:00 +20°C° 0 mm 1 m/s 637 mmHg 89%
    08:00 +22°C° 0 mm 1 m/s 639 mmHg 82%
    09:00 +22°C° 0 mm 0 m/s 640 mmHg 76%
    10:00 +25°C° 0.4 mm 1 m/s 640 mmHg 75%
    11:00 +25°C° 0.4 mm 1 m/s 640 mmHg 74%
    12:00 +26°C° 0.4 mm 1 m/s 639 mmHg 73%
    13:00 +26°C° 1.4 mm 1 m/s 639 mmHg 72%
    14:00 +26°C° 1.4 mm 1 m/s 638 mmHg 71%
    15:00 +26°C° 1.4 mm 1 m/s 638 mmHg 70%
    16:00 +24°C° 0.1 mm 1 m/s 638 mmHg 76%
    17:00 +21°C° 0.1 mm 0 m/s 637 mmHg 81%
    18:00 +20°C° 0.1 mm 0 m/s 637 mmHg 86%
    19:00 +19°C° 0 mm 0 m/s 637 mmHg 88%
    20:00 +20°C° 0 mm 1 m/s 637 mmHg 90%
    21:00 +19°C° 0 mm 1 m/s 637 mmHg 91%
    22:00 +18°C° 0 mm 1 m/s 637 mmHg 92%
    23:00 +18°C° 0 mm 1 m/s 637 mmHg 92%

    24 August, Sâmbătă

    Timp Temperatura Precipitaţii Vânt Presiune Umiditate
    00:00 +18°C° 0 mm 1 m/s 637 mmHg 93%
    01:00 +18°C° 0 mm 1 m/s 637 mmHg 93%
    02:00 +16°C° 0 mm 1 m/s 636 mmHg 94%
    03:00 +16°C° 0 mm 1 m/s 636 mmHg 94%
    04:00 +16°C° 0 mm 1 m/s 636 mmHg 94%
    05:00 +16°C° 0 mm 1 m/s 636 mmHg 93%
    06:00 +16°C° 0 mm 1 m/s 636 mmHg 92%
    07:00 +19°C° 0 mm 1 m/s 637 mmHg 84%
    08:00 +22°C° 0 mm 1 m/s 639 mmHg 76%
    09:00 +24°C° 0 mm 1 m/s 640 mmHg 68%
    10:00 +25°C° 0 mm 1 m/s 640 mmHg 64%
    11:00 +26°C° 0 mm 1 m/s 640 mmHg 60%
    12:00 +27°C° 0 mm 1 m/s 640 mmHg 56%
    13:00 +27°C° 0.2 mm 1 m/s 639 mmHg 57%
    14:00 +27°C° 0.2 mm 1 m/s 639 mmHg 58%
    15:00 +27°C° 0.2 mm 1 m/s 638 mmHg 60%
    16:00 +25°C° 0.3 mm 1 m/s 638 mmHg 69%
    17:00 +21°C° 0.3 mm 0 m/s 637 mmHg 79%
    18:00 +20°C° 0.3 mm 0 m/s 637 mmHg 89%
    19:00 +19°C° 0 mm 0 m/s 637 mmHg 90%
    20:00 +20°C° 0 mm 1 m/s 637 mmHg 91%
    21:00 +19°C° 0 mm 1 m/s 637 mmHg 92%
    22:00 +18°C° 0 mm 1 m/s 637 mmHg 94%
    23:00 +18°C° 0 mm 1 m/s 637 mmHg 95%

    25 August, Duminică

    Timp Temperatura Precipitaţii Vânt Presiune Umiditate
    00:00 +18°C° 0 mm 1 m/s 637 mmHg 96%
    01:00 +18°C° 0 mm 1 m/s 636 mmHg 95%
    02:00 +16°C° 0 mm 1 m/s 636 mmHg 95%
    03:00 +16°C° 0 mm 1 m/s 635 mmHg 95%
    04:00 +16°C° 0 mm 1 m/s 635 mmHg 93%
    05:00 +15°C° 0 mm 1 m/s 635 mmHg 92%
    06:00 +15°C° 0 mm 1 m/s 635 mmHg 91%
    07:00 +19°C° 0 mm 1 m/s 637 mmHg 83%
    08:00 +21°C° 0 mm 1 m/s 638 mmHg 75%
    09:00 +24°C° 0 mm 1 m/s 639 mmHg 67%
    10:00 +25°C° 0 mm 1 m/s 639 mmHg 63%
    11:00 +26°C° 0 mm 1 m/s 639 mmHg 60%
    12:00 +27°C° 0 mm 1 m/s 639 mmHg 56%
    13:00 +27°C° 0.2 mm 1 m/s 638 mmHg 58%
    14:00 +27°C° 0.2 mm 1 m/s 638 mmHg 60%
    15:00 +26°C° 0.2 mm 1 m/s 637 mmHg 62%
    16:00 +25°C° 0.3 mm 1 m/s 637 mmHg 72%
    17:00 +23°C° 0.3 mm 1 m/s 636 mmHg 82%
    18:00 +19°C° 0.3 mm 0 m/s 636 mmHg 93%
    19:00 +18°C° 0 mm 0 m/s 636 mmHg 93%
    20:00 +20°C° 0 mm 1 m/s 636 mmHg 94%
    21:00 +19°C° 0 mm 1 m/s 636 mmHg 94%
    22:00 +18°C° 0.1 mm 1 m/s 636 mmHg 94%
    23:00 +18°C° 0.1 mm 1 m/s 636 mmHg 95%

    26 August, Luni

    Timp Temperatura Precipitaţii Vânt Presiune Umiditate
    00:00 +18°C° 0.1 mm 1 m/s 636 mmHg 95%
    01:00 +18°C° 0 mm 1 m/s 635 mmHg 95%
    02:00 +18°C° 0 mm 1 m/s 635 mmHg 95%
    03:00 +16°C° 0 mm 1 m/s 635 mmHg 95%
    04:00 +16°C° 0 mm 1 m/s 635 mmHg 95%
    05:00 +16°C° 0 mm 1 m/s 635 mmHg 94%
    06:00 +16°C° 0 mm 1 m/s 635 mmHg 94%
    07:00 +19°C° 0 mm 1 m/s 636 mmHg 87%
    08:00 +21°C° 0 mm 1 m/s 637 mmHg 81%
    09:00 +22°C° 0 mm 0 m/s 638 mmHg 74%
    10:00 +22°C° 0.5 mm 0 m/s 638 mmHg 73%
    11:00 +25°C° 0.5 mm 1 m/s 638 mmHg 73%
    12:00 +26°C° 0.5 mm 1 m/s 638 mmHg 72%
    13:00 +25°C° 1.4 mm 1 m/s 637 mmHg 75%
    14:00 +25°C° 1.4 mm 1 m/s 637 mmHg 77%
    15:00 +24°C° 1.4 mm 1 m/s 636 mmHg 80%
    16:00 +23°C° 1 mm 1 m/s 636 mmHg 85%
    17:00 +22°C° 1 mm 1 m/s 636 mmHg 90%
    18:00 +19°C° 1 mm 0 m/s 636 mmHg 94%
    19:00 +18°C° 1 mm 0 m/s 636 mmHg 94%
    20:00 +18°C° 1 mm 0 m/s 636 mmHg 94%
    21:00 +17°C° 1 mm 0 m/s 636 mmHg 93%
    22:00 +19°C° 1.6 mm 1 m/s 636 mmHg 94%
    23:00 +19°C° 1.6 mm 1 m/s 636 mmHg 95%
    Arată mai mult